timestamp,wind_dir_avg,wind_spd_avg,wind_spd_max_dir,wind_spd_gust,battery_voltage,lat,long
2024-03-24 00:04:00+00:00,251.0,9.46,250.0,11.46,12.25,47.59359,-54.27349
2024-03-24 00:14:00+00:00,249.0,8.76,253.0,12.39,12.25,47.59359,-54.27349
2024-03-24 00:24:00+00:00,257.0,9.99,260.0,12.55,12.25,47.59359,-54.27349
2024-03-24 00:34:00+00:00,264.0,9.15,261.0,9.56,12.25,47.59359,-54.27349
2024-03-24 00:44:00+00:00,257.0,9.42,258.0,11.83,12.25,47.59359,-54.27349
2024-03-24 00:54:00+00:00,248.0,8.79,248.0,11.23,12.25,47.59359,-54.27349
2024-03-24 01:04:00+00:00,249.0,8.62,253.0,10.74,12.25,47.59359,-54.27349
2024-03-24 01:14:00+00:00,251.0,8.12,251.0,9.66,12.17,47.59359,-54.27349
2024-03-24 01:24:00+00:00,248.0,8.74,247.0,10.99,12.17,47.59359,-54.27349
2024-03-24 01:34:00+00:00,256.0,7.86,259.0,9.46,12.17,47.59359,-54.27349
2024-03-24 01:44:00+00:00,249.0,7.37,245.0,8.34,12.17,47.59359,-54.27349
2024-03-24 01:54:00+00:00,249.0,9.63,259.0,13.41,12.17,47.59359,-54.27349
2024-03-24 02:04:00+00:00,247.0,8.52,255.0,9.44,12.17,47.59359,-54.27349
2024-03-24 02:14:00+00:00,251.0,6.78,252.0,7.29,12.17,47.59359,-54.27349
2024-03-24 02:24:00+00:00,246.0,7.29,242.0,8.16,12.17,47.59359,-54.27349
2024-03-24 02:34:00+00:00,234.0,6.61,228.0,7.04,12.17,47.59359,-54.27349
2024-03-24 02:44:00+00:00,248.0,7.1,251.0,8.3,12.17,47.59359,-54.27349
2024-03-24 02:54:00+00:00,230.0,7.12,234.0,7.93,12.17,47.59359,-54.27349
2024-03-24 03:04:00+00:00,234.0,7.08,242.0,8.41,12.17,47.59359,-54.27349
2024-03-24 03:14:00+00:00,315.0,0.01,228.0,0.0,12.17,47.59359,-54.27349
2024-03-24 03:24:00+00:00,315.0,0.01,228.0,0.0,12.17,47.59359,-54.27349
2024-03-24 03:34:00+00:00,230.0,6.94,233.0,7.14,12.17,47.59359,-54.27349
2024-03-24 03:44:00+00:00,226.0,8.03,228.0,9.08,12.17,47.59359,-54.27349
2024-03-24 03:54:00+00:00,231.0,7.7,236.0,8.44,12.17,47.59359,-54.27349
2024-03-24 04:04:00+00:00,315.0,0.01,227.0,0.0,12.17,47.59359,-54.27349
2024-03-24 04:14:00+00:00,232.0,6.81,233.0,6.82,12.09,47.59359,-54.27349
2024-03-24 04:24:00+00:00,315.0,0.01,230.0,0.0,12.09,47.59359,-54.27349
2024-03-24 04:34:00+00:00,315.0,0.01,236.0,0.0,12.09,47.59359,-54.27349
2024-03-24 04:44:00+00:00,315.0,0.01,229.0,0.0,12.09,47.59359,-54.27349
2024-03-24 04:54:00+00:00,315.0,0.01,229.0,0.0,12.09,47.59359,-54.27349
2024-03-24 05:04:00+00:00,315.0,0.01,229.0,0.0,12.09,47.59359,-54.27349
2024-03-24 05:14:00+00:00,315.0,0.01,203.0,0.0,12.09,47.59359,-54.27349
2024-03-24 05:24:00+00:00,315.0,0.01,207.0,0.0,12.09,47.59359,-54.27349
2024-03-24 05:34:00+00:00,315.0,0.01,207.0,0.0,12.09,47.59359,-54.27349
2024-03-24 05:44:00+00:00,315.0,0.01,207.0,0.0,12.09,47.59359,-54.27349
2024-03-24 05:54:00+00:00,196.0,5.41,197.0,5.42,12.09,47.59359,-54.27349
2024-03-24 06:04:00+00:00,202.0,5.43,203.0,5.57,12.09,47.59359,-54.27349
2024-03-24 06:14:00+00:00,200.0,5.55,202.0,5.99,12.09,47.59359,-54.27349
2024-03-24 06:24:00+00:00,195.0,5.02,201.0,5.66,12.09,47.59359,-54.27349
2024-03-24 06:34:00+00:00,197.0,6.0,197.0,6.48,12.09,47.59359,-54.27349
2024-03-24 06:44:00+00:00,202.0,4.61,202.0,5.13,12.09,47.59359,-54.27349
2024-03-24 06:54:00+00:00,315.0,0.01,203.0,0.0,12.09,47.59359,-54.27349
2024-03-24 07:04:00+00:00,190.0,5.38,197.0,6.05,12.09,47.59359,-54.27349
2024-03-24 07:14:00+00:00,315.0,0.01,197.0,0.0,12.09,47.59359,-54.27349
2024-03-24 07:24:00+00:00,191.0,6.87,191.0,7.62,12.09,47.59359,-54.27349
2024-03-24 07:34:00+00:00,196.0,5.74,195.0,6.17,12.09,47.59359,-54.27349
2024-03-24 07:44:00+00:00,180.0,5.24,176.0,5.94,12.09,47.59359,-54.27349
2024-03-24 07:54:00+00:00,178.0,4.98,174.0,5.68,12.09,47.59359,-54.27349
2024-03-24 08:04:00+00:00,180.0,4.17,188.0,4.52,12.09,47.59359,-54.27349
2024-03-24 08:14:00+00:00,178.0,5.27,176.0,5.6,12.01,47.59359,-54.27349
2024-03-24 08:24:00+00:00,177.0,5.73,177.0,6.22,12.01,47.59359,-54.27349
2024-03-24 08:34:00+00:00,175.0,6.23,179.0,6.81,12.01,47.59359,-54.27349
2024-03-24 08:44:00+00:00,190.0,6.63,189.0,7.72,12.01,47.59359,-54.27349
2024-03-24 08:54:00+00:00,181.0,6.4,181.0,7.2,12.01,47.59359,-54.27349
2024-03-24 09:04:00+00:00,182.0,6.27,181.0,6.77,12.01,47.59359,-54.27349
2024-03-24 09:14:00+00:00,185.0,5.47,183.0,5.92,12.01,47.59359,-54.27349
2024-03-24 09:24:00+00:00,192.0,6.26,194.0,7.34,12.01,47.59359,-54.27349
2024-03-24 09:34:00+00:00,188.0,9.52,187.0,10.63,12.01,47.59359,-54.27349
2024-03-24 09:44:00+00:00,180.0,7.56,182.0,8.23,12.01,47.59359,-54.27349
2024-03-24 09:54:00+00:00,187.0,6.9,193.0,7.55,12.01,47.59359,-54.27349
2024-03-24 10:04:00+00:00,185.0,5.31,196.0,5.98,12.01,47.59359,-54.27349
2024-03-24 10:14:00+00:00,182.0,5.96,186.0,6.78,12.09,47.59359,-54.27349
2024-03-24 10:24:00+00:00,184.0,9.11,189.0,10.16,12.09,47.59359,-54.27349
2024-03-24 10:34:00+00:00,176.0,7.59,175.0,9.22,12.09,47.59359,-54.27349
2024-03-24 10:44:00+00:00,181.0,8.19,178.0,9.13,12.09,47.59359,-54.27349
2024-03-24 10:54:00+00:00,181.0,8.75,179.0,9.96,12.09,47.59359,-54.27349
2024-03-24 11:04:00+00:00,176.0,8.66,166.0,9.8,12.09,47.59359,-54.27349
2024-03-24 11:14:00+00:00,176.0,9.8,168.0,11.12,13.37,47.59359,-54.27349
2024-03-24 11:24:00+00:00,180.0,10.59,191.0,12.47,13.37,47.59359,-54.27349
2024-03-24 11:34:00+00:00,177.0,7.4,175.0,8.38,13.37,47.59359,-54.27349
2024-03-24 11:44:00+00:00,181.0,8.24,180.0,9.82,13.37,47.59359,-54.27349
2024-03-24 11:54:00+00:00,181.0,8.82,182.0,9.74,13.37,47.59359,-54.27349
2024-03-24 12:04:00+00:00,179.0,9.4,178.0,10.54,13.37,47.59359,-54.27349
2024-03-24 12:14:00+00:00,178.0,10.41,183.0,11.54,13.68,47.59359,-54.27349
2024-03-24 12:24:00+00:00,181.0,8.65,183.0,9.06,13.68,47.59359,-54.27349
2024-03-24 12:34:00+00:00,315.0,0.01,168.0,0.0,13.68,47.59359,-54.27349
2024-03-24 12:44:00+00:00,168.0,9.83,168.0,9.83,13.68,47.59359,-54.27349
2024-03-24 12:54:00+00:00,166.0,9.68,167.0,9.69,13.68,47.59359,-54.27349
2024-03-24 13:04:00+00:00,173.0,9.23,171.0,10.83,13.68,47.59359,-54.27349
2024-03-24 13:14:01+00:00,177.0,9.56,214.0,11.23,13.6,47.59359,-54.27349
2024-03-24 13:24:01+00:00,192.0,11.18,198.0,13.6,13.6,47.59359,-54.27349
2024-03-24 13:34:01+00:00,187.0,12.31,182.0,13.8,13.6,47.59359,-54.27349
2024-03-24 13:44:01+00:00,184.0,14.59,174.0,16.64,13.6,47.59359,-54.27349
2024-03-24 13:54:01+00:00,186.0,14.84,198.0,17.07,13.6,47.59359,-54.27349
2024-03-24 14:04:01+00:00,315.0,0.01,184.0,0.0,13.6,47.59359,-54.27349
2024-03-24 14:14:00+00:00,186.0,9.94,193.0,10.94,13.53,47.59359,-54.27349
2024-03-24 14:24:00+00:00,191.0,12.52,190.0,14.47,13.53,47.59359,-54.27349
2024-03-24 14:34:00+00:00,190.0,13.75,187.0,15.54,13.53,47.59359,-54.27349
2024-03-24 14:44:00+00:00,194.0,14.22,189.0,16.6,13.53,47.59359,-54.27349
2024-03-24 14:54:00+00:00,192.0,13.27,191.0,14.76,13.53,47.59359,-54.27349
2024-03-24 15:04:00+00:00,191.0,15.11,190.0,18.05,13.53,47.59359,-54.27349
2024-03-24 15:14:00+00:00,195.0,13.77,198.0,16.43,13.29,47.59359,-54.27349
2024-03-24 15:24:00+00:00,190.0,15.86,187.0,17.82,13.29,47.59359,-54.27349
2024-03-24 15:34:00+00:00,189.0,16.13,187.0,17.88,13.29,47.59359,-54.27349
2024-03-24 15:44:00+00:00,189.0,16.0,189.0,17.63,13.29,47.59359,-54.27349
2024-03-24 15:54:00+00:00,192.0,14.61,189.0,17.27,13.29,47.59359,-54.27349
2024-03-24 16:04:00+00:00,190.0,16.53,191.0,20.37,13.29,47.59359,-54.27349
2024-03-24 16:14:00+00:00,190.0,16.87,187.0,19.76,13.29,47.59359,-54.27349
2024-03-24 16:24:00+00:00,189.0,21.18,190.0,27.14,13.29,47.59359,-54.27349
2024-03-24 16:34:00+00:00,188.0,22.99,190.0,27.82,13.29,47.59359,-54.27349
2024-03-24 16:44:00+00:00,190.0,19.81,186.0,22.97,13.29,47.59359,-54.27349
2024-03-24 16:54:00+00:00,192.0,17.94,189.0,21.75,13.29,47.59359,-54.27349
2024-03-24 17:04:00+00:00,190.0,18.82,187.0,22.06,13.29,47.59359,-54.27349
2024-03-24 17:14:00+00:00,195.0,19.81,211.0,25.63,13.37,47.59359,-54.27349
2024-03-24 17:24:00+00:00,191.0,18.54,189.0,22.99,13.37,47.59359,-54.27349
2024-03-24 17:34:00+00:00,189.0,20.11,182.0,25.68,13.37,47.59359,-54.27349
2024-03-24 17:44:00+00:00,192.0,18.37,210.0,23.82,13.37,47.59359,-54.27349
2024-03-24 17:54:00+00:00,208.0,21.16,215.0,24.37,13.37,47.59359,-54.27349
2024-03-24 18:04:00+00:00,195.0,18.02,195.0,20.02,13.37,47.59359,-54.27349
2024-03-24 18:14:00+00:00,217.0,20.43,213.0,21.86,13.29,47.59359,-54.27349
2024-03-24 18:24:00+00:00,200.0,15.12,196.0,17.9,13.29,47.59359,-54.27349
2024-03-24 18:34:00+00:00,197.0,17.13,214.0,19.88,13.29,47.59359,-54.27349
2024-03-24 18:44:00+00:00,196.0,17.21,220.0,22.46,13.29,47.59359,-54.27349
2024-03-24 18:54:00+00:00,205.0,15.63,220.0,18.26,13.29,47.59359,-54.27349
2024-03-24 19:04:00+00:00,192.0,15.56,197.0,17.04,13.29,47.59359,-54.27349
2024-03-24 19:14:01+00:00,196.0,14.89,192.0,18.51,13.13,47.59359,-54.27349
2024-03-24 19:24:01+00:00,193.0,15.85,192.0,18.59,13.13,47.59359,-54.27349
2024-03-24 19:34:01+00:00,205.0,17.59,216.0,21.22,13.13,47.59359,-54.27349
2024-03-24 19:44:01+00:00,207.0,13.96,224.0,18.37,13.13,47.59359,-54.27349
2024-03-24 19:54:01+00:00,217.0,19.89,212.0,22.83,13.13,47.59359,-54.27349
2024-03-24 20:04:01+00:00,222.0,17.84,217.0,21.36,13.13,47.59359,-54.27349
2024-03-24 20:14:00+00:00,252.0,10.75,249.0,11.31,13.05,47.59359,-54.27349
2024-03-24 20:24:00+00:00,234.0,15.06,227.0,17.26,13.05,47.59359,-54.27349
2024-03-24 20:34:00+00:00,315.0,0.01,230.0,0.0,13.05,47.59359,-54.27349
2024-03-24 20:44:00+00:00,229.0,12.73,228.0,14.57,13.05,47.59359,-54.27349
2024-03-24 20:54:00+00:00,241.0,11.05,240.0,11.43,13.05,47.59359,-54.27349
2024-03-24 21:04:00+00:00,235.0,11.69,237.0,12.73,13.05,47.59359,-54.27349
2024-03-24 21:14:00+00:00,238.0,11.65,241.0,12.59,12.65,47.59359,-54.27349
2024-03-24 21:24:00+00:00,231.0,12.61,235.0,14.34,12.65,47.59359,-54.27349
2024-03-24 21:34:00+00:00,236.0,12.03,238.0,13.23,12.65,47.59359,-54.27349
2024-03-24 21:44:00+00:00,229.0,12.71,225.0,14.3,12.65,47.59359,-54.27349
2024-03-24 21:54:00+00:00,227.0,14.95,230.0,17.24,12.65,47.59359,-54.27349
2024-03-24 22:04:00+00:00,229.0,14.35,216.0,17.49,12.65,47.59359,-54.27349
2024-03-24 22:14:01+00:00,240.0,14.85,243.0,17.45,12.25,47.59359,-54.27349
2024-03-24 22:24:01+00:00,223.0,16.69,216.0,19.5,12.25,47.59359,-54.27349
2024-03-24 22:34:01+00:00,224.0,16.17,231.0,18.64,12.25,47.59359,-54.27349
2024-03-24 22:44:01+00:00,229.0,14.81,238.0,17.29,12.25,47.59359,-54.27349
2024-03-24 22:54:01+00:00,233.0,15.65,227.0,17.31,12.25,47.59359,-54.27349
2024-03-24 23:04:01+00:00,230.0,15.94,227.0,18.58,12.25,47.59359,-54.27349
2024-03-24 23:14:01+00:00,234.0,15.62,236.0,16.75,12.25,47.59359,-54.27349
2024-03-24 23:24:01+00:00,212.0,10.03,212.0,10.76,12.25,47.59359,-54.27349
2024-03-24 23:34:01+00:00,218.0,11.5,215.0,13.43,12.25,47.59359,-54.27349
2024-03-24 23:44:01+00:00,224.0,7.76,219.0,8.36,12.25,47.59359,-54.27349
2024-03-24 23:54:01+00:00,259.0,10.75,263.0,12.45,12.25,47.59359,-54.27349
